Location: Newark
(25.6108°S, 54.5803°W)
Time: 08:48:22
(UTC+00:00)

Tiros 1 - Pass Details

Date: 05 November 2020
Orbit: 630 x 664 km, 48.4° (Epoch: 29 November)

Event Time Altitude Azimuth Distance (km) Brightness Sun altitude
Rises 21:21:57 0° 210° (SSW) 3,017 11.3 6.9°
Reaches altitude 10° 21:24:59 10° 192° (SSW) 2,101 10.2 6.2°
Maximum altitude 21:28:21 18° 148° (SSE) 1,606 9.1 5.5°
Drops below altitude 10° 21:31:43 10° 103° (ESE) 2,088 9.3 4.7°
Sets 21:34:43 0° 85° (E) 2,992 9.9 4.1°
